Hourly Weather Barkowo

Today, 21 April, Wednesday

Time Temperature Precipitation Wind Pressure Humidity
00:00 +8°C° 0 mm 1 mps 746 mmHg 81%
01:00 +8°C° 0 mm 1 mps 746 mmHg 81%
02:00 +8°C° 0 mm 1 mps 745 mmHg 82%
03:00 +6°C° 0 mm 2 mps 745 mmHg 82%
04:00 +5°C° 0 mm 2 mps 745 mmHg 83%
05:00 +6°C° 0 mm 2 mps 745 mmHg 76%
06:00 +7°C° 0 mm 2 mps 745 mmHg 70%
07:00 +8°C° 0 mm 2 mps 745 mmHg 64%
08:00 +10°C° 0 mm 2 mps 745 mmHg 57%
09:00 +12°C° 0 mm 3 mps 745 mmHg 50%
10:00 +13°C° 0 mm 3 mps 745 mmHg 43%
11:00 +14°C° 0 mm 3 mps 745 mmHg 42%
12:00 +14°C° 0 mm 4 mps 745 mmHg 41%
13:00 +15°C° 0 mm 4 mps 744 mmHg 40%
14:00 +15°C° 0 mm 4 mps 744 mmHg 43%
15:00 +14°C° 0 mm 5 mps 744 mmHg 45%
16:00 +14°C° 0 mm 5 mps 744 mmHg 48%
17:00 +12°C° 0.1 mm 5 mps 744 mmHg 57%
18:00 +9°C° 0.1 mm 5 mps 744 mmHg 66%
19:00 +7°C° 0.1 mm 5 mps 744 mmHg 75%
20:00 +6°C° 0.1 mm 5 mps 744 mmHg 74%
21:00 +5°C° 0.1 mm 4 mps 744 mmHg 73%
22:00 +4°C° 0.1 mm 4 mps 745 mmHg 72%
23:00 +2°C° 0 mm 5 mps 745 mmHg 71%

Tomorrow, 22 April, Thursday

Time Temperature Precipitation Wind Pressure Humidity
00:00 +1°C° 0 mm 5 mps 745 mmHg 70%
01:00 +1°C° 0 mm 5 mps 745 mmHg 69%
02:00 0°C° 0 mm 5 mps 744 mmHg 72%
03:00 -1°C° 0 mm 6 mps 744 mmHg 75%
04:00 -2°C° 0 mm 6 mps 744 mmHg 78%
05:00 -1°C° 0 mm 6 mps 744 mmHg 76%
06:00 +1°C° 0 mm 6 mps 744 mmHg 74%
07:00 +2°C° 0 mm 7 mps 744 mmHg 71%
08:00 +2°C° 0.1 mm 7 mps 745 mmHg 68%
09:00 +3°C° 0.1 mm 7 mps 745 mmHg 65%
10:00 +4°C° 0.1 mm 8 mps 745 mmHg 62%
11:00 +5°C° 0.2 mm 8 mps 745 mmHg 55%
12:00 +6°C° 0.2 mm 9 mps 745 mmHg 48%
13:00 +7°C° 0.2 mm 9 mps 745 mmHg 40%
14:00 +6°C° 0 mm 9 mps 745 mmHg 43%
15:00 +5°C° 0 mm 9 mps 746 mmHg 46%
16:00 +5°C° 0 mm 8 mps 746 mmHg 49%
17:00 +4°C° 0 mm 8 mps 746 mmHg 53%
18:00 +3°C° 0 mm 7 mps 747 mmHg 56%
19:00 +2°C° 0 mm 7 mps 747 mmHg 60%
20:00 +2°C° 0 mm 6 mps 747 mmHg 61%
21:00 +2°C° 0 mm 6 mps 747 mmHg 61%
22:00 +2°C° 0 mm 5 mps 747 mmHg 62%
23:00 +1°C° 0 mm 5 mps 747 mmHg 63%

Day after tomorrow, 23 April, Friday

Time Temperature Precipitation Wind Pressure Humidity
00:00 +1°C° 0 mm 5 mps 747 mmHg 65%
01:00 0°C° 0 mm 5 mps 748 mmHg 66%
02:00 0°C° 0 mm 5 mps 748 mmHg 67%
03:00 0°C° 0 mm 4 mps 748 mmHg 68%
04:00 0°C° 0 mm 4 mps 748 mmHg 69%
05:00 +1°C° 0.1 mm 4 mps 748 mmHg 70%
06:00 +1°C° 0.1 mm 4 mps 748 mmHg 70%
07:00 +3°C° 0.1 mm 4 mps 749 mmHg 70%
08:00 +3°C° 0.1 mm 5 mps 749 mmHg 60%
09:00 +4°C° 0.1 mm 6 mps 749 mmHg 49%
10:00 +5°C° 0.1 mm 7 mps 749 mmHg 38%
11:00 +6°C° 0 mm 7 mps 749 mmHg 38%
12:00 +6°C° 0 mm 7 mps 750 mmHg 37%
13:00 +6°C° 0 mm 7 mps 750 mmHg 36%
14:00 +5°C° 0 mm 7 mps 751 mmHg 36%
15:00 +5°C° 0 mm 7 mps 751 mmHg 36%
16:00 +5°C° 0 mm 7 mps 751 mmHg 36%
17:00 +4°C° 0 mm 6 mps 752 mmHg 41%
18:00 +3°C° 0 mm 5 mps 752 mmHg 46%
19:00 +3°C° 0 mm 4 mps 752 mmHg 51%
20:00 +1°C° 0 mm 4 mps 752 mmHg 55%
21:00 +1°C° 0 mm 4 mps 753 mmHg 59%
22:00 0°C° 0 mm 4 mps 753 mmHg 63%
23:00 0°C° 0 mm 4 mps 753 mmHg 65%

24 April, Saturday

Time Temperature Precipitation Wind Pressure Humidity
00:00 -1°C° 0 mm 4 mps 753 mmHg 67%
01:00 -1°C° 0 mm 4 mps 753 mmHg 69%
02:00 -1°C° 0 mm 4 mps 753 mmHg 72%
03:00 -1°C° 0 mm 3 mps 753 mmHg 74%
04:00 -1°C° 0 mm 3 mps 752 mmHg 76%
05:00 -1°C° 0 mm 4 mps 752 mmHg 71%
06:00 +1°C° 0 mm 4 mps 752 mmHg 66%
07:00 +3°C° 0 mm 4 mps 752 mmHg 61%
08:00 +4°C° 0 mm 4 mps 752 mmHg 53%
09:00 +6°C° 0 mm 5 mps 752 mmHg 45%
10:00 +7°C° 0 mm 5 mps 752 mmHg 37%
11:00 +7°C° 0 mm 6 mps 752 mmHg 37%
12:00 +7°C° 0 mm 6 mps 752 mmHg 37%
13:00 +6°C° 0 mm 7 mps 752 mmHg 37%
14:00 +5°C° 0 mm 7 mps 752 mmHg 35%
15:00 +5°C° 0 mm 7 mps 752 mmHg 34%
16:00 +4°C° 0 mm 7 mps 753 mmHg 33%
17:00 +3°C° 0 mm 6 mps 753 mmHg 37%
18:00 +3°C° 0 mm 4 mps 753 mmHg 41%
19:00 +2°C° 0 mm 3 mps 753 mmHg 46%
20:00 +1°C° 0 mm 3 mps 753 mmHg 53%
21:00 0°C° 0 mm 3 mps 754 mmHg 60%
22:00 -1°C° 0 mm 3 mps 754 mmHg 68%
23:00 -1°C° 0 mm 3 mps 754 mmHg 72%

25 April, Sunday

Time Temperature Precipitation Wind Pressure Humidity
00:00 -1°C° 0 mm 3 mps 753 mmHg 77%
01:00 -1°C° 0 mm 2 mps 753 mmHg 81%
02:00 -1°C° 0 mm 3 mps 753 mmHg 81%
03:00 -1°C° 0 mm 3 mps 753 mmHg 81%
04:00 -1°C° 0 mm 3 mps 753 mmHg 81%
05:00 0°C° 0 mm 3 mps 753 mmHg 73%
06:00 +1°C° 0 mm 4 mps 753 mmHg 66%
07:00 +3°C° 0 mm 4 mps 753 mmHg 58%
08:00 +3°C° 0 mm 5 mps 753 mmHg 51%
09:00 +4°C° 0 mm 6 mps 753 mmHg 43%
10:00 +5°C° 0 mm 7 mps 753 mmHg 35%
11:00 +5°C° 0 mm 7 mps 753 mmHg 35%
12:00 +5°C° 0 mm 7 mps 753 mmHg 36%
13:00 +5°C° 0 mm 7 mps 753 mmHg 36%
14:00 +5°C° 0 mm 7 mps 753 mmHg 36%
15:00 +5°C° 0 mm 7 mps 753 mmHg 36%
16:00 +4°C° 0 mm 6 mps 753 mmHg 36%
17:00 +3°C° 0 mm 5 mps 753 mmHg 41%
18:00 +3°C° 0 mm 4 mps 753 mmHg 46%
19:00 +2°C° 0 mm 3 mps 753 mmHg 51%
20:00 +1°C° 0 mm 3 mps 753 mmHg 56%
21:00 +1°C° 0 mm 3 mps 753 mmHg 61%
22:00 0°C° 0 mm 3 mps 753 mmHg 66%
23:00 0°C° 0 mm 3 mps 753 mmHg 70%

26 April, Monday

Time Temperature Precipitation Wind Pressure Humidity
00:00 -1°C° 0 mm 4 mps 752 mmHg 74%
01:00 -1°C° 0 mm 4 mps 752 mmHg 77%
02:00 -1°C° 0 mm 4 mps 752 mmHg 81%
03:00 0°C° 0 mm 3 mps 752 mmHg 85%
04:00 -1°C° 0 mm 3 mps 752 mmHg 88%
05:00 0°C° 0 mm 4 mps 752 mmHg 79%
06:00 +1°C° 0 mm 4 mps 752 mmHg 71%
07:00 +4°C° 0 mm 4 mps 752 mmHg 62%
08:00 +5°C° 0 mm 5 mps 752 mmHg 54%
09:00 +7°C° 0 mm 5 mps 752 mmHg 46%
10:00 +8°C° 0 mm 5 mps 753 mmHg 38%
11:00 +9°C° 0 mm 5 mps 752 mmHg 37%
12:00 +10°C° 0 mm 4 mps 752 mmHg 35%
13:00 +11°C° 0 mm 4 mps 752 mmHg 33%
14:00 +11°C° 0 mm 4 mps 752 mmHg 34%
15:00 +11°C° 0 mm 4 mps 751 mmHg 34%
16:00 +10°C° 0 mm 3 mps 751 mmHg 34%
17:00 +9°C° 0 mm 3 mps 751 mmHg 40%
18:00 +7°C° 0 mm 3 mps 751 mmHg 45%
19:00 +5°C° 0 mm 2 mps 750 mmHg 51%
20:00 +4°C° 0 mm 2 mps 750 mmHg 56%
21:00 +4°C° 0 mm 2 mps 750 mmHg 61%
22:00 +3°C° 0 mm 2 mps 750 mmHg 66%
23:00 +2°C° 0 mm 2 mps 749 mmHg 74%
Show more